Theta_e
309 309 309 309 310 310 310 310 310 310 309 309 310 310 311 311 310 310 309 310 309 309 309 309 308 310 309 307 307 308 308 310 308 310 309 308 307 306 305 305 305 305 305
310 309 310 310 310 310 308 308 309 309 309 310 309 310 310 310 310 309 309 308 308 310 308 308 308 309 308 307 307 307 308 307 308 309 309 308 307 305 305 303 304 304 304
309 309 309 307 307 308 309 309 308 309 308 308 308 308 309 309 309 308 308 308 308 308 309 308 308 308 307 307 305 305 306 308 309 310 309 307 306 305 305 304 303 304 304
308 308 308 308 309 308 308 308 308 308 307 307 308 308 308 308 309 308 306 304 306 307 308 308 308 308 306 306 305 305 307 308 309 308 308 307 306 306 305 304 303 303 304
308 307 306 308 307 308 308 307 308 307 307 307 307 307 307 308 307 306 305 304 303 307 308 307 307 306 306 306 306 305 307 308 309 308 308 307 307 306 305 304 304 303 302
307 307 307 307 307 307 307 307 306 307 306 306 306 305 305 304 304 305 304 303 303 306 307 307 305 307 306 306 306 307 309 309 309 308 308 308 307 306 305 305 305 304 301
307 307 307 307 307 306 305 306 305 305 304 305 304 303 303 303 303 303 303 303 303 307 307 307 305 306 306 307 307 308 310 310 309 308 309 308 308 306 305 305 303 304 302
308 307 307 307 306 305 304 304 304 303 303 303 302 302 302 302 303 303 304 306 307 307 306 305 307 307 307 307 308 309 310 309 309 309 309 309 308 307 306 305 303 303 301
307 306 306 305 304 304 303 303 302 301 301 301 302 302 302 302 302 303 305 306 307 306 305 307 307 308 308 308 309 310 309 309 309 309 308 308 308 308 307 305 302 301 300
307 306 305 304 303 302 301 301 301 300 301 302 301 302 302 303 303 303 303 303 304 306 307 308 309 309 309 309 310 309 309 309 309 308 309 308 308 308 308 306 306 306 305
307 306 304 302 301 301 302 300 301 301 302 303 303 303 303 303 304 304 305 306 306 307 307 308 308 308 309 309 309 309 309 309 308 308 307 307 307 307 306 306 306 307 308
305 304 302 302 302 303 302 301 301 303 304 304 304 304 304 305 305 306 307 307 307 307 307 307 306 307 308 309 308 308 308 307 307 307 304 299 298 298 300 299 299 301 304
303 302 302 302 302 302 302 303 303 303 304 304 305 305 305 306 306 306 306 306 307 307 307 306 306 306 308 308 308 308 308 308 304 300 302 304 305 306 306 306 304 303 304
303 303 303 303 302 302 303 303 304 305 305 305 305 306 306 307 307 307 307 307 308 307 307 307 308 304 307 307 308 306 302 304 306 306 306 307 307 308 308 307 307 306 307
303 303 304 304 305 305 305 305 305 305 305 305 306 305 307 308 308 308 308 308 307 308 308 304 303 307 306 305 305 307 307 307 307 307 307 307 308 309 309 309 309 308 308
304 304 305 305 306 306 305 305 306 306 307 307 307 308 308 308 306 306 307 307 307 308 308 309 309 309 309 309 310 309 309 309 309 309 309 310 309 309 309 309 309 309 309
304 305 305 306 307 307 307 307 307 308 309 308 308 308 307 306 309 309 310 310 311 311 310 310 310 310 310 311 310 310 311 310 310 310 310 309 309 310 309 310 310 310 310
306 305 306 306 307 308 308 308 308 307 306 307 306 306 307 310 310 311 310 310 310 310 311 311 311 311 312 312 312 312 312 311 311 311 310 311 311 312 310 310 311 311 310
307 307 307 308 308 308 308 309 309 309 310 309 309 311 311 310 310 310 310 311 311 310 310 311 310 311 311 311 311 312 311 311 311 310 312 311 311 312 311 311 311 311 311
309 308 308 308 308 309 310 311 310 310 310 310 310 310 310 310 310 310 310 310 310 310 311 310 310 309 308 308 311 311 309 309 307 307 307 309 310 311 311 311 312 310 309
310 310 310 309 310 311 312 310 310 310 310 310 310 310 310 310 310 309 309 309 308 307 306 305 304 304 303 305 308 308 307 306 306 306 306 307 308 308 308 307 307 305 305
310 310 310 310 311 310 310 310 310 309 309 309 309 309 309 308 308 308 307 306 305 304 303 303 303 302 301 301 301 306 305 305 305 305 305 305 305 305 305 305 305 305 304
311 310 311 311 310 310 310 310 310 310 308 307 307 306 305 305 305 305 304 304 304 304 303 301 300 300 300 300 300 302 303 304 304 305 305 305 305 305 305 305 305 305 305
312 311 310 310 310 311 311 310 307 306 306 306 305 305 305 305 305 304 304 304 303 302 300 300 300 300 300 300 300 301 302 303 304 305 305 304 305 305 305 304 305 305 304
312 311 310 311 311 310 309 306 305 306 305 305 305 305 304 304 304 304 303 303 302 301 300 298 298 298 298 299 299 299 300 302 303 304 304 304 304 303 304 304 304 304 304
312 312 311 311 311 310 307 306 305 305 304 304 304 304 304 303 303 302 302 301 300 298 297 295 294 294 294 295 295 296 298 302 304 304 304 303 302 303 303 303 303 303 303
Wind_Speed
16 16 16 18 19 13 14 15 15 17 16 15 15 15 11 9 8 7 5 8 9 14 14 10 12 11 15 18 17 14 15 13 16 15 23 12 12 16 14 11 7 8 13
20 21 20 17 17 15 17 15 12 13 13 13 13 10 7 7 6 4 7 9 10 12 14 12 10 13 16 18 22 9 14 14 15 19 16 7 14 13 13 10 10 7 8
20 24 23 27 22 16 17 14 13 13 13 14 12 9 9 7 3 3 6 7 11 14 11 9 9 14 17 18 22 10 9 12 15 11 6 8 9 12 14 11 9 6 6
21 21 22 22 18 19 18 15 14 13 13 11 12 9 8 7 4 7 9 11 9 13 9 8 9 12 15 17 19 9 8 11 10 7 2 6 8 11 11 13 14 11 9
18 20 22 24 25 19 17 16 15 14 15 13 11 9 10 3 8 10 13 13 11 10 9 11 11 13 13 18 15 12 7 7 3 5 6 8 9 10 10 8 9 13 13
18 21 20 22 17 15 17 18 14 12 11 11 10 9 9 11 13 15 15 14 9 9 8 10 13 9 12 12 12 9 7 5 3 3 5 7 10 12 9 8 4 3 14
18 19 16 17 18 20 17 14 14 14 13 10 12 14 13 10 12 11 9 5 3 6 6 9 10 11 9 7 5 5 4 4 4 5 6 7 9 11 9 10 11 14 16
17 15 16 15 15 14 15 16 15 14 15 13 14 13 10 11 11 11 7 7 6 3 6 11 10 6 6 3 4 5 5 8 9 5 6 8 8 11 12 10 11 13 13
15 14 13 17 18 15 17 19 18 16 14 10 8 10 11 13 11 6 10 9 6 7 9 8 6 6 7 6 6 8 10 12 9 8 7 8 8 7 8 8 9 10 14
16 16 16 20 17 19 17 18 16 11 10 11 14 15 14 14 13 9 4 2 6 7 8 11 11 10 10 9 11 11 13 11 10 8 9 10 10 9 9 13 16 11 10
13 12 20 19 16 15 16 16 17 19 17 18 14 12 12 15 13 12 12 10 12 14 18 19 17 16 15 14 13 14 13 11 9 7 9 14 16 17 19 14 12 11 8
14 16 16 15 16 15 16 17 17 18 16 17 13 15 16 15 16 18 17 17 19 19 21 21 19 15 12 10 10 10 10 12 7 8 16 21 20 20 23 18 13 7 4
12 15 16 16 18 19 21 18 15 15 15 16 18 20 20 19 21 22 22 20 19 20 20 18 18 17 16 15 13 11 12 13 17 26 26 24 23 22 24 24 24 21 19
16 15 16 21 19 17 19 19 20 19 19 20 20 21 20 18 16 14 15 15 15 14 16 18 22 27 25 26 29 33 30 26 23 22 24 23 20 18 15 13 16 15 16
16 17 19 22 24 25 24 23 23 22 19 17 18 19 19 21 22 21 19 24 35 34 33 35 31 29 30 30 28 24 24 24 23 21 16 13 12 14 14 8 8 8 11
16 17 17 15 17 20 19 18 18 18 18 19 19 19 21 30 37 37 38 35 35 28 24 23 25 23 23 23 22 21 16 16 15 13 12 13 15 12 12 12 9 8 10
14 13 14 16 16 14 15 19 22 26 28 31 33 33 41 38 33 29 27 27 29 25 23 24 24 24 22 21 19 17 16 15 13 13 12 10 11 10 12 11 9 9 10
17 14 13 14 18 26 31 30 32 37 33 30 37 41 33 26 27 26 25 25 24 23 21 22 21 20 16 15 18 16 13 13 18 18 15 15 14 11 13 11 7 9 13
17 18 20 25 28 35 34 29 28 25 24 24 22 23 27 29 27 25 23 21 20 24 24 21 22 21 18 20 17 13 19 20 17 14 11 15 16 10 9 13 12 11 11
23 25 26 27 28 25 24 21 24 25 26 25 28 26 26 25 24 24 24 25 24 23 16 22 21 21 18 25 19 17 16 16 20 19 18 13 17 13 12 15 8 16 11
25 22 23 23 18 13 17 20 19 19 22 23 25 24 24 23 21 20 21 22 18 20 24 24 26 21 18 12 13 16 20 19 21 21 19 15 19 18 17 19 18 19 10
24 20 21 20 21 21 21 19 20 20 20 19 19 19 19 18 18 19 19 20 24 21 16 14 12 14 15 19 19 9 11 15 18 19 20 19 17 19 17 15 18 18 20
19 18 19 13 14 16 14 14 14 15 17 17 17 18 18 18 20 20 20 18 16 19 21 21 22 22 21 20 19 19 18 16 17 18 19 18 18 18 17 17 16 18 18
10 12 9 13 13 11 11 14 16 16 17 17 18 18 18 19 20 19 19 20 21 21 18 17 18 18 17 17 17 15 14 13 14 15 17 18 14 18 18 16 19 17 16
9 6 15 17 15 14 14 14 14 14 15 17 17 17 17 17 18 17 18 18 16 17 19 18 17 17 16 15 14 13 11 9 11 15 17 15 18 11 19 18 17 17 18
9 11 12 12 12 12 12 12 13 14 14 14 14 15 16 16 16 16 15 16 15 15 14 16 18 18 17 16 16 14 10 10 12 16 17 15 16 11 16 15 17 16 17
Wind_Direction
338 329 332 325 314 314 309 304 312 311 316 318 318 310 305 302 303 304 317 332 321 312 305 310 321 326 323 336 331 335 324 328 313 325 331 313 342 346 352 356 1 16 34
339 339 327 317 314 318 319 322 330 342 340 334 332 327 327 319 300 330 340 317 311 309 308 307 319 317 319 325 321 323 324 324 314 314 311 322 351 1 3 4 9 5 21
341 336 337 334 344 324 330 335 333 333 334 333 337 332 321 324 331 332 320 327 326 320 314 310 323 314 318 323 328 329 327 323 332 345 298 340 358 13 16 13 5 10 21
340 333 339 338 334 330 322 325 332 340 335 350 347 344 334 335 245 245 305 312 310 321 327 324 323 319 316 325 332 341 319 319 344 4 38 358 9 1 4 25 31 34 46
330 328 332 336 328 329 320 324 314 322 329 336 333 337 344 300 280 292 301 307 320 330 331 320 307 317 328 333 338 342 351 338 14 26 39 41 19 11 12 359 9 34 73
341 336 346 338 348 349 344 333 345 347 338 341 331 338 327 309 297 297 301 303 307 318 311 318 332 336 307 315 330 344 358 17 80 93 61 25 20 20 10 20 1 76 82
335 335 339 342 354 359 355 348 335 339 340 344 336 342 345 340 343 338 325 339 347 346 326 315 329 314 328 348 352 359 26 67 93 129 51 31 30 29 48 52 75 101 102
346 349 357 6 356 351 350 343 339 344 346 340 345 359 14 12 20 31 46 45 41 26 317 336 344 347 359 38 36 55 79 97 106 92 50 42 44 45 46 54 73 84 88
3 360 359 357 347 346 348 344 343 346 348 355 11 27 34 27 17 43 60 54 38 340 350 357 357 44 67 51 71 102 102 102 88 75 55 43 30 26 32 68 64 79 85
358 6 355 348 353 354 1 359 6 10 39 30 56 54 43 21 21 22 11 320 41 38 42 70 70 69 77 71 83 89 98 91 88 64 40 25 19 35 62 80 69 80 44
359 353 349 9 28 25 14 29 51 62 62 47 39 31 22 21 42 53 59 70 70 76 80 76 72 71 82 87 88 86 78 72 70 55 44 60 66 75 84 73 54 33 35
7 7 28 34 22 27 34 51 63 51 34 39 45 33 48 57 60 67 70 72 79 81 77 67 58 64 71 81 84 82 80 76 52 39 75 76 70 70 67 57 50 54 73
35 49 43 36 36 51 47 52 55 56 48 56 58 62 60 65 73 70 61 68 71 71 71 64 59 54 59 64 65 79 61 72 85 94 77 71 65 59 61 55 58 64 71
49 42 53 56 60 64 63 60 60 62 64 67 66 62 64 68 61 66 67 66 66 64 65 69 68 67 64 77 79 85 82 76 69 66 63 59 53 47 47 53 52 55 45
55 73 66 56 62 57 56 54 54 51 51 62 63 58 58 59 58 61 65 76 79 78 83 81 77 71 74 80 80 70 65 61 58 58 52 43 45 49 53 66 41 48 29
65 68 59 55 42 38 46 46 50 54 58 58 60 64 66 77 85 85 86 78 78 73 66 59 59 54 51 52 51 47 48 40 36 36 37 43 48 52 49 57 40 57 28
80 66 64 58 51 45 51 64 74 73 76 73 73 78 91 85 76 66 59 60 66 64 73 76 68 67 69 65 63 63 63 68 66 55 48 69 65 42 41 34 41 26 9
67 82 73 70 72 80 77 77 86 89 91 87 93 96 88 72 67 62 65 66 66 64 64 63 59 52 47 56 55 45 44 46 45 43 42 45 29 18 24 15 28 356 9
75 82 86 89 87 93 92 78 71 67 66 72 76 69 76 75 71 65 62 60 61 65 65 64 60 57 51 49 50 44 40 38 38 31 23 23 14 355 5 15 35 12 354
86 93 95 94 95 91 69 57 64 69 69 77 79 81 75 70 64 61 56 51 45 39 35 42 45 44 44 45 45 43 39 34 33 31 24 19 16 7 23 14 20 15 22
91 94 96 97 74 60 67 66 67 72 72 73 74 70 66 61 57 54 54 46 36 37 46 47 46 37 29 34 51 56 52 45 31 27 25 17 24 24 28 33 15 8 7
74 83 90 64 49 51 81 83 80 77 72 69 65 60 60 57 53 51 49 51 49 37 41 49 51 51 48 46 43 51 48 46 44 40 33 26 26 31 28 25 29 23 19
68 71 64 62 61 74 73 67 62 64 61 61 61 60 58 58 57 56 52 48 53 57 45 38 47 48 48 47 48 50 50 47 41 35 33 29 26 27 28 28 26 24 23
75 66 72 95 74 53 60 64 62 63 66 66 64 62 60 59 56 52 51 46 33 30 41 39 37 38 37 39 41 43 44 38 39 39 37 20 29 35 25 20 23 19 14
58 70 104 81 55 63 61 64 64 66 65 64 62 59 57 55 52 51 50 41 38 37 15 21 27 23 22 23 26 31 36 42 42 40 32 24 22 21 30 24 11 18 15
48 107 105 70 55 59 62 64 67 66 64 63 63 62 59 53 49 45 44 44 33 24 18 10 27 23 22 24 23 21 29 51 47 36 26 15 10 25 22 13 14 8 11